TVF31AP EGLL-LFPO

Flight info

Callsign TVF31AP
Flight time 0h 54m
Altitude 29000
Route MAXIT Y803 MID L151 SITET A34 BOBSA
Aircraft A320/M-SDE3FGHIRWY/LB1

Departure

Time 2026-05-03 20:20
Airport London Heathrow Airport (EGLL)

Arrival

Time 2026-05-03 21:14
Airport Paris-Orly Airport (LFPO)
Time Latitude Longitude Altitude Speed Heading
2026-05-03 20:15 51.46754 -0.44215 86 ft 0 kts 90°
2026-05-03 20:15 51.46754 -0.44214 86 ft 1 kts 90°
2026-05-03 20:15 51.46754 -0.44182 86 ft 4 kts 90°
2026-05-03 20:16 51.46754 -0.44121 86 ft 6 kts 89°
2026-05-03 20:16 51.46765 -0.44040 88 ft 8 kts 77°
2026-05-03 20:16 51.46771 -0.43936 86 ft 10 kts 90°
2026-05-03 20:16 51.46771 -0.43819 86 ft 11 kts 89°
2026-05-03 20:17 51.46772 -0.43712 87 ft 9 kts 89°
2026-05-03 20:17 51.46768 -0.43651 87 ft 3 kts 111°
2026-05-03 20:17 51.46752 -0.43620 88 ft 5 kts 139°
2026-05-03 20:17 51.46716 -0.43606 86 ft 6 kts 179°
2026-05-03 20:18 51.46666 -0.43605 86 ft 8 kts 180°
2026-05-03 20:18 51.46602 -0.43605 86 ft 10 kts 180°
2026-05-03 20:18 51.46536 -0.43604 87 ft 6 kts 180°
2026-05-03 20:18 51.46500 -0.43631 90 ft 6 kts 240°
2026-05-03 20:19 51.46495 -0.43668 88 ft 1 kts 267°
2026-05-03 20:19 51.46495 -0.43698 86 ft 5 kts 269°
2026-05-03 20:19 51.46494 -0.44058 86 ft 67 kts 269°
2026-05-03 20:19 51.46489 -0.45150 88 ft 125 kts 269°
2026-05-03 20:20 51.46488 -0.46791 149 ft 162 kts 272°
2026-05-03 20:20 51.46505 -0.48555 808 ft 157 kts 269°
2026-05-03 20:20 51.46479 -0.50307 1428 ft 157 kts 268°
2026-05-03 20:20 51.46436 -0.52139 1764 ft 172 kts 264°
2026-05-03 20:21 51.46075 -0.54046 2085 ft 190 kts 239°
2026-05-03 20:21 51.45201 -0.55766 2447 ft 206 kts 232°
2026-05-03 20:21 51.44378 -0.57801 2763 ft 230 kts 242°
2026-05-03 20:21 51.43578 -0.60189 3169 ft 254 kts 238°
2026-05-03 20:22 51.42341 -0.62262 3919 ft 261 kts 211°
2026-05-03 20:22 51.40631 -0.63043 4781 ft 265 kts 178°
2026-05-03 20:22 51.38841 -0.62274 5608 ft 270 kts 155°
2026-05-03 20:22 51.37184 -0.60798 6344 ft 277 kts 151°
2026-05-03 20:23 51.35419 -0.59585 7201 ft 275 kts 169°
2026-05-03 20:23 51.33542 -0.59001 8115 ft 276 kts 169°
2026-05-03 20:23 51.31650 -0.58382 8947 ft 279 kts 169°
2026-05-03 20:23 51.29746 -0.57741 9794 ft 281 kts 169°
2026-05-03 20:24 51.27798 -0.57097 10347 ft 293 kts 169°
2026-05-03 20:24 51.25725 -0.56595 10669 ft 311 kts 178°
2026-05-03 20:24 51.23508 -0.56691 10935 ft 328 kts 188°
2026-05-03 20:24 51.21220 -0.57409 11301 ft 341 kts 193°
2026-05-03 20:25 51.18855 -0.58214 11670 ft 354 kts 192°
2026-05-03 20:25 51.16403 -0.58993 12229 ft 360 kts 192°
2026-05-03 20:25 51.13941 -0.59759 12884 ft 363 kts 191°
2026-05-03 20:25 51.11442 -0.60521 13579 ft 366 kts 191°
2026-05-03 20:26 51.08929 -0.61284 14218 ft 368 kts 191°
2026-05-03 20:26 51.06375 -0.61628 14830 ft 371 kts 180°
2026-05-03 20:26 51.03952 -0.61181 15358 ft 376 kts 169°
2026-05-03 20:26 51.01450 -0.59892 15927 ft 382 kts 159°
2026-05-03 20:27 50.99010 -0.58180 16465 ft 386 kts 159°
2026-05-03 20:27 50.96521 -0.56508 17048 ft 390 kts 160°
2026-05-03 20:27 50.93995 -0.54867 17641 ft 393 kts 160°
2026-05-03 20:27 50.91449 -0.53232 18220 ft 397 kts 160°
2026-05-03 20:28 50.88911 -0.51598 18734 ft 400 kts 160°
2026-05-03 20:28 50.86293 -0.49900 19279 ft 402 kts 160°
2026-05-03 20:28 50.83698 -0.48206 19832 ft 404 kts 160°
2026-05-03 20:28 50.81126 -0.46516 20360 ft 406 kts 160°
2026-05-03 20:29 50.78505 -0.44792 20865 ft 408 kts 160°
2026-05-03 20:29 50.75877 -0.43069 21340 ft 410 kts 160°
2026-05-03 20:29 50.73238 -0.41343 21793 ft 412 kts 160°
2026-05-03 20:29 50.70587 -0.39615 22231 ft 413 kts 160°
2026-05-03 20:30 50.67920 -0.37880 22664 ft 415 kts 161°
2026-05-03 20:30 50.65238 -0.36136 23094 ft 417 kts 161°
2026-05-03 20:30 50.62542 -0.34380 23484 ft 419 kts 161°
2026-05-03 20:30 50.59843 -0.32624 23816 ft 421 kts 161°
2026-05-03 20:31 50.57130 -0.30860 24150 ft 422 kts 161°
2026-05-03 20:31 50.54408 -0.29092 24487 ft 424 kts 161°
2026-05-03 20:31 50.51676 -0.27324 24809 ft 426 kts 161°
2026-05-03 20:31 50.48929 -0.25550 25147 ft 427 kts 161°
2026-05-03 20:32 50.46176 -0.23779 25465 ft 429 kts 161°
2026-05-03 20:32 50.43411 -0.22000 25784 ft 430 kts 161°
2026-05-03 20:32 50.40668 -0.20233 26092 ft 432 kts 161°
2026-05-03 20:32 50.37894 -0.18446 26527 ft 430 kts 161°
2026-05-03 20:33 50.35128 -0.16669 26994 ft 429 kts 161°
2026-05-03 20:33 50.32372 -0.14898 27462 ft 427 kts 161°
2026-05-03 20:33 50.29623 -0.13141 27927 ft 426 kts 161°
2026-05-03 20:33 50.26880 -0.11396 28410 ft 424 kts 161°
2026-05-03 20:34 50.24151 -0.09662 28840 ft 424 kts 161°
2026-05-03 20:34 50.18656 -0.06127 28934 ft 433 kts 161°
2026-05-03 20:35 50.13125 -0.02287 28940 ft 436 kts 159°
2026-05-03 20:35 50.07483 0.01013 28939 ft 431 kts 169°
2026-05-03 20:36 50.01672 0.03343 28943 ft 431 kts 169°
2026-05-03 20:36 49.95850 0.05605 28929 ft 431 kts 170°
2026-05-03 20:37 49.90039 0.07858 28940 ft 430 kts 170°
2026-05-03 20:37 49.84230 0.10130 28945 ft 430 kts 170°
2026-05-03 20:38 49.78463 0.12386 28947 ft 430 kts 170°
2026-05-03 20:38 49.72629 0.14667 28936 ft 429 kts 170°
2026-05-03 20:39 49.66837 0.16915 28944 ft 429 kts 170°
2026-05-03 20:39 49.61105 0.19212 28945 ft 428 kts 169°
2026-05-03 20:40 49.55341 0.21570 28937 ft 428 kts 169°
2026-05-03 20:40 49.49569 0.23913 28927 ft 428 kts 170°
2026-05-03 20:41 49.43807 0.26221 28939 ft 427 kts 170°
2026-05-03 20:41 49.38096 0.28488 28942 ft 427 kts 170°
2026-05-03 20:42 49.32351 0.30773 28941 ft 426 kts 170°
2026-05-03 20:42 49.26619 0.33120 28936 ft 427 kts 169°
2026-05-03 20:43 49.20904 0.35606 28943 ft 427 kts 169°
2026-05-03 20:43 49.15188 0.38104 28946 ft 427 kts 169°
2026-05-03 20:44 49.09477 0.40569 28947 ft 426 kts 169°
2026-05-03 20:44 49.03753 0.42956 28931 ft 426 kts 170°
2026-05-03 20:45 48.98032 0.45286 28916 ft 425 kts 170°
2026-05-03 20:45 48.92403 0.47585 28944 ft 408 kts 170°
2026-05-03 20:45 48.89714 0.48698 28949 ft 394 kts 170°
2026-05-03 20:46 48.87081 0.49781 28936 ft 391 kts 170°
2026-05-03 20:46 48.84452 0.50855 28413 ft 389 kts 170°
2026-05-03 20:46 48.81851 0.51916 27779 ft 389 kts 170°
2026-05-03 20:46 48.79218 0.52986 27054 ft 390 kts 170°
2026-05-03 20:47 48.76631 0.54040 26717 ft 381 kts 170°
2026-05-03 20:47 48.74110 0.55063 25943 ft 373 kts 170°
2026-05-03 20:47 48.71617 0.56064 25056 ft 369 kts 170°
2026-05-03 20:47 48.69141 0.57050 24181 ft 366 kts 170°
2026-05-03 20:48 48.66684 0.58027 23329 ft 364 kts 170°
2026-05-03 20:48 48.64242 0.58999 22379 ft 361 kts 170°
2026-05-03 20:48 48.61824 0.59965 21516 ft 357 kts 169°
2026-05-03 20:48 48.59433 0.60921 20651 ft 353 kts 169°
2026-05-03 20:49 48.57095 0.61855 19805 ft 349 kts 169°
2026-05-03 20:49 48.54761 0.62785 18957 ft 345 kts 169°
2026-05-03 20:49 48.52448 0.63703 18103 ft 342 kts 169°
2026-05-03 20:49 48.50154 0.64613 17165 ft 340 kts 168°
2026-05-03 20:50 48.47880 0.65638 16613 ft 342 kts 160°
2026-05-03 20:50 48.45871 0.67584 16190 ft 348 kts 140°
2026-05-03 20:50 48.44807 0.69458 15920 ft 352 kts 127°
2026-05-03 20:50 48.43839 0.72870 15547 ft 359 kts 105°
2026-05-03 20:51 48.43689 0.76636 15288 ft 365 kts 86°
2026-05-03 20:51 48.44047 0.80417 15050 ft 365 kts 84°
2026-05-03 20:51 48.44429 0.84148 14928 ft 364 kts 83°
2026-05-03 20:51 48.44825 0.87968 14940 ft 365 kts 84°
2026-05-03 20:52 48.45211 0.91700 14948 ft 366 kts 84°
2026-05-03 20:52 48.45600 0.95493 14949 ft 366 kts 84°
2026-05-03 20:52 48.45983 0.99286 14949 ft 366 kts 84°
2026-05-03 20:52 48.46361 1.03063 14803 ft 362 kts 84°
2026-05-03 20:53 48.46730 1.06763 14589 ft 352 kts 84°
2026-05-03 20:53 48.47089 1.10374 14338 ft 345 kts 84°
2026-05-03 20:53 48.47440 1.13933 13980 ft 342 kts 84°
2026-05-03 20:53 48.47788 1.17471 13610 ft 339 kts 84°
2026-05-03 20:54 48.48131 1.20972 13208 ft 337 kts 84°
2026-05-03 20:54 48.48808 1.27918 12423 ft 333 kts 84°
2026-05-03 20:54 48.49144 1.31356 12029 ft 331 kts 84°
2026-05-03 20:55 48.49477 1.34774 11712 ft 327 kts 84°
2026-05-03 20:55 48.49805 1.38150 11487 ft 324 kts 84°
2026-05-03 20:55 48.50130 1.41505 11330 ft 323 kts 84°
2026-05-03 20:55 48.50452 1.44859 11190 ft 322 kts 84°
2026-05-03 20:56 48.50773 1.48201 11035 ft 322 kts 84°
2026-05-03 20:56 48.51091 1.51532 10887 ft 321 kts 84°
2026-05-03 20:56 48.51408 1.54861 10739 ft 320 kts 84°
2026-05-03 20:56 48.51723 1.58181 10592 ft 319 kts 84°
2026-05-03 20:57 48.52036 1.61491 10514 ft 319 kts 84°
2026-05-03 20:57 48.52344 1.64745 10464 ft 313 kts 84°
2026-05-03 20:57 48.52647 1.67958 10414 ft 308 kts 84°
2026-05-03 20:57 48.52946 1.71146 10365 ft 307 kts 84°
2026-05-03 20:58 48.53242 1.74334 10304 ft 306 kts 84°
2026-05-03 20:58 48.53537 1.77515 10256 ft 306 kts 84°
2026-05-03 20:58 48.53833 1.80698 10207 ft 306 kts 84°
2026-05-03 20:58 48.54129 1.83879 10159 ft 306 kts 84°
2026-05-03 20:59 48.54424 1.87061 10057 ft 306 kts 84°
2026-05-03 20:59 48.54703 1.90237 9951 ft 304 kts 85°
2026-05-03 20:59 48.54934 1.93408 9961 ft 304 kts 86°
2026-05-03 20:59 48.55143 1.96582 9964 ft 304 kts 86°
2026-05-03 21:00 48.55346 1.99762 9964 ft 304 kts 87°
2026-05-03 21:00 48.55482 2.01906 9966 ft 304 kts 86°
2026-05-03 21:00 48.55754 2.06122 9968 ft 304 kts 86°
2026-05-03 21:00 48.55962 2.09305 9965 ft 304 kts 86°
2026-05-03 21:01 48.56171 2.12489 9970 ft 304 kts 86°
2026-05-03 21:01 48.56378 2.15672 9967 ft 304 kts 87°
2026-05-03 21:01 48.56574 2.18852 9964 ft 305 kts 87°
2026-05-03 21:01 48.56769 2.22040 9967 ft 305 kts 87°
2026-05-03 21:02 48.56965 2.25229 9969 ft 305 kts 87°
2026-05-03 21:02 48.57159 2.28414 9832 ft 303 kts 87°
2026-05-03 21:02 48.57351 2.31577 9475 ft 302 kts 87°
2026-05-03 21:02 48.57541 2.34722 9134 ft 300 kts 87°
2026-05-03 21:03 48.57726 2.37812 8802 ft 298 kts 87°
2026-05-03 21:03 48.57912 2.40918 8543 ft 297 kts 87°
2026-05-03 21:03 48.58096 2.44019 8288 ft 296 kts 87°
2026-05-03 21:03 48.58278 2.47102 8053 ft 294 kts 87°
2026-05-03 21:04 48.58458 2.50173 7962 ft 293 kts 87°
2026-05-03 21:04 48.58638 2.53248 7971 ft 294 kts 87°
2026-05-03 21:04 48.58818 2.56327 7936 ft 293 kts 87°
2026-05-03 21:04 48.58997 2.59391 7608 ft 292 kts 87°
2026-05-03 21:05 48.59175 2.62437 7266 ft 291 kts 87°
2026-05-03 21:05 48.59358 2.65479 6942 ft 290 kts 87°
2026-05-03 21:05 48.59539 2.68511 6626 ft 289 kts 87°
2026-05-03 21:05 48.59751 2.71517 6314 ft 288 kts 80°
2026-05-03 21:06 48.60572 2.74246 6086 ft 285 kts 51°
2026-05-03 21:06 48.62060 2.76048 5875 ft 268 kts 22°
2026-05-03 21:06 48.63809 2.76744 5543 ft 255 kts
2026-05-03 21:06 48.65551 2.77035 5154 ft 250 kts
2026-05-03 21:07 48.67275 2.77266 4686 ft 249 kts
2026-05-03 21:07 48.68991 2.77487 4402 ft 246 kts
2026-05-03 21:07 48.70695 2.77704 4113 ft 245 kts
2026-05-03 21:07 48.72385 2.77920 3839 ft 242 kts
2026-05-03 21:08 48.74031 2.78134 3705 ft 233 kts
2026-05-03 21:08 48.75596 2.77943 3479 ft 222 kts 336°
2026-05-03 21:08 48.76893 2.76839 3266 ft 211 kts 314°
2026-05-03 21:08 48.77829 2.75144 3219 ft 211 kts 295°
2026-05-03 21:09 48.78325 2.73076 3144 ft 207 kts 276°
2026-05-03 21:09 48.78324 2.70918 3053 ft 204 kts 257°
2026-05-03 21:09 48.77965 2.68844 3003 ft 203 kts 253°
2026-05-03 21:09 48.77602 2.66839 2999 ft 192 kts 253°
2026-05-03 21:10 48.77251 2.64904 3007 ft 187 kts 253°
2026-05-03 21:10 48.76912 2.63031 3024 ft 182 kts 253°
2026-05-03 21:10 48.76577 2.61187 3007 ft 181 kts 253°
2026-05-03 21:10 48.76241 2.59341 2903 ft 182 kts 253°
2026-05-03 21:11 48.75905 2.57498 2706 ft 181 kts 253°
2026-05-03 21:11 48.75570 2.55661 2473 ft 179 kts 253°
2026-05-03 21:11 48.75243 2.53868 2245 ft 175 kts 253°
2026-05-03 21:11 48.74923 2.52112 2015 ft 170 kts 253°
2026-05-03 21:12 48.74617 2.50436 1795 ft 160 kts 253°
2026-05-03 21:12 48.74330 2.48869 1577 ft 147 kts 253°
2026-05-03 21:12 48.74069 2.47442 1383 ft 140 kts 253°
2026-05-03 21:12 48.73810 2.46029 1192 ft 139 kts 252°
2026-05-03 21:13 48.73551 2.44618 1011 ft 140 kts 252°
2026-05-03 21:13 48.73290 2.43202 817 ft 139 kts 252°
2026-05-03 21:13 48.73029 2.41792 638 ft 138 kts 252°
2026-05-03 21:13 48.72769 2.40389 453 ft 138 kts 252°
2026-05-03 21:14 48.72515 2.38987 304 ft 134 kts 254°
2026-05-03 21:14 48.72306 2.37857 302 ft 87 kts 254°
2026-05-03 21:14 48.72181 2.37151 299 ft 40 kts 257°
2026-05-03 21:14 48.72178 2.36849 300 ft 18 kts 275°
2026-05-03 21:15 48.72186 2.36697 299 ft 16 kts 275°
2026-05-03 21:15 48.72193 2.36558 299 ft 13 kts 281°
2026-05-03 21:15 48.72233 2.36434 302 ft 14 kts 298°
2026-05-03 21:15 48.72271 2.36351 302 ft 8 kts 311°
2026-05-03 21:16 48.72309 2.36303 301 ft 7 kts 327°
2026-05-03 21:16 48.72352 2.36278 299 ft 6 kts 343°
2026-05-03 21:16 48.72372 2.36269 300 ft 2 kts 343°
2026-05-03 21:16 48.72384 2.36263 301 ft 2 kts 343°
2026-05-03 21:17 48.72398 2.36257 299 ft 3 kts 344°
2026-05-03 21:17 48.72413 2.36251 302 ft 4 kts 344°
2026-05-03 21:17 48.72441 2.36239 299 ft 4 kts 344°
2026-05-03 21:17 48.72463 2.36229 302 ft 2 kts 343°
2026-05-03 21:18 48.72478 2.36214 300 ft 4 kts 317°
2026-05-03 21:18 48.72494 2.36171 301 ft 6 kts 302°
2026-05-03 21:18 48.72524 2.36148 297 ft 3 kts 345°
2026-05-03 21:18 48.72546 2.36140 298 ft 2 kts 347°
2026-05-03 21:19 48.72560 2.36135 297 ft 1 kts 348°
2026-05-03 21:19 48.72570 2.36132 298 ft 1 kts 348°
2026-05-03 21:19 48.72573 2.36131 300 ft 0 kts 348°